Time,TemperatureF,DewpointF,PressureIn,WindDirection,WindDirectionDegrees,WindSpeedMPH,WindSpeedGustMPH,Humidity,HourlyPrecipIn,Conditions,Clouds,dailyrainin,SoftwareType,DateUTC
2013-07-28 00:02:00,63.0,53.0,-100.00,NE,37,2.0,9.0,71,0.00,,,0.00,,2013-07-28 06:02:00,
2013-07-28 00:12:00,63.0,53.0,-100.00,NE,37,2.0,9.0,71,0.00,,,0.00,,2013-07-28 06:12:00,
2013-07-28 00:22:00,63.0,53.0,-100.00,NE,37,2.0,9.0,71,0.00,,,0.00,,2013-07-28 06:22:00,
2013-07-28 00:32:00,63.0,53.0,-100.00,NE,37,2.0,9.0,71,0.00,,,0.00,,2013-07-28 06:32:00,
2013-07-28 00:40:00,62.0,52.0,-100.00,NNW,348,5.0,8.0,71,0.00,,,0.00,,2013-07-28 06:40:00,
2013-07-28 01:02:00,62.0,52.0,-100.00,NNW,348,5.0,8.0,71,0.00,,,0.00,,2013-07-28 07:02:00,
2013-07-28 01:12:00,62.0,52.0,-100.00,NNW,348,5.0,8.0,71,0.00,,,0.00,,2013-07-28 07:12:00,
2013-07-28 01:22:00,62.0,52.0,-100.00,NNW,348,5.0,8.0,71,0.00,,,0.00,,2013-07-28 07:22:00,
2013-07-28 01:32:00,62.0,52.0,-100.00,NNW,348,5.0,8.0,71,0.00,,,0.00,,2013-07-28 07:32:00,
2013-07-28 01:40:00,61.0,53.0,-100.00,North,350,5.0,12.0,75,0.00,,,0.00,,2013-07-28 07:40:00,
2013-07-28 02:12:00,61.0,53.0,-100.00,North,350,5.0,12.0,75,0.00,,,0.00,,2013-07-28 08:12:00,
2013-07-28 02:22:00,61.0,53.0,-100.00,North,350,5.0,12.0,75,0.00,,,0.00,,2013-07-28 08:22:00,
2013-07-28 02:33:00,61.0,53.0,-100.00,North,350,5.0,12.0,75,0.00,,,0.00,,2013-07-28 08:33:00,
2013-07-28 02:40:00,60.0,54.0,-100.00,NNW,343,5.0,12.0,81,0.00,,,0.00,,2013-07-28 08:40:00,
2013-07-28 03:02:00,60.0,54.0,-100.00,NNW,343,5.0,12.0,81,0.00,,,0.00,,2013-07-28 09:02:00,
2013-07-28 03:12:00,60.0,54.0,-100.00,NNW,343,5.0,12.0,81,0.00,,,0.00,,2013-07-28 09:12:00,
2013-07-28 03:22:00,60.0,54.0,-100.00,NNW,343,5.0,12.0,81,0.00,,,0.00,,2013-07-28 09:22:00,
2013-07-28 03:32:00,60.0,54.0,-100.00,NNW,343,5.0,12.0,81,0.00,,,0.00,,2013-07-28 09:32:00,
2013-07-28 03:40:00,59.0,52.0,-100.00,NW,320,3.0,11.0,78,0.00,,,0.00,,2013-07-28 09:40:00,
2013-07-28 04:12:00,59.0,52.0,-100.00,NW,320,3.0,11.0,78,0.00,,,0.00,,2013-07-28 10:12:00,
2013-07-28 04:22:00,59.0,52.0,-100.00,NW,320,3.0,11.0,78,0.00,,,0.00,,2013-07-28 10:22:00,
2013-07-28 04:33:00,59.0,52.0,-100.00,NW,320,3.0,11.0,78,0.00,,,0.00,,2013-07-28 10:33:00,
2013-07-28 04:40:00,58.0,52.0,-100.00,NW,316,3.0,5.0,81,0.00,,,0.00,,2013-07-28 10:40:00,
2013-07-28 05:12:00,58.0,52.0,-100.00,NW,316,3.0,5.0,81,0.00,,,0.00,,2013-07-28 11:12:00,
2013-07-28 05:22:00,58.0,52.0,-100.00,NW,316,3.0,5.0,81,0.00,,,0.00,,2013-07-28 11:22:00,
2013-07-28 05:33:00,58.0,52.0,-100.00,NW,316,3.0,5.0,81,0.00,,,0.00,,2013-07-28 11:33:00,
2013-07-28 05:40:00,59.0,52.0,-100.00,NNW,345,4.0,7.0,78,0.00,,,0.00,,2013-07-28 11:40:00,
2013-07-28 06:12:00,59.0,52.0,-100.00,NNW,345,4.0,7.0,78,0.00,,,0.00,,2013-07-28 12:12:00,
2013-07-28 06:22:00,59.0,52.0,-100.00,NNW,345,4.0,7.0,78,0.00,,,0.00,,2013-07-28 12:22:00,
2013-07-28 06:33:00,59.0,52.0,-100.00,NNW,345,4.0,7.0,78,0.00,,,0.00,,2013-07-28 12:33:00,
2013-07-28 06:40:00,58.0,52.0,-100.00,NW,325,2.0,9.0,79,0.00,,,0.00,,2013-07-28 12:40:00,
2013-07-28 07:12:00,58.0,52.0,-100.00,NW,325,2.0,9.0,79,0.00,,,0.00,,2013-07-28 13:12:00,
2013-07-28 07:22:00,58.0,52.0,-100.00,NW,325,2.0,9.0,79,0.00,,,0.00,,2013-07-28 13:22:00,
2013-07-28 07:32:00,58.0,52.0,-100.00,NW,325,2.0,9.0,79,0.00,,,0.00,,2013-07-28 13:32:00,
2013-07-28 07:40:00,65.0,53.0,-100.00,NW,320,2.0,6.0,65,0.00,,,0.00,,2013-07-28 13:40:00,
2013-07-28 08:12:00,65.0,53.0,-100.00,NW,320,2.0,6.0,65,0.00,,,0.00,,2013-07-28 14:12:00,
2013-07-28 08:23:00,65.0,53.0,-100.00,NW,320,2.0,6.0,65,0.00,,,0.00,,2013-07-28 14:23:00,
2013-07-28 08:33:00,65.0,53.0,-100.00,NW,320,2.0,6.0,65,0.00,,,0.00,,2013-07-28 14:33:00,
2013-07-28 08:40:00,66.0,54.0,-100.00,SE,128,3.0,7.0,65,0.00,,,0.00,,2013-07-28 14:40:00,
2013-07-28 09:13:00,66.0,54.0,-100.00,SE,128,3.0,7.0,65,0.00,,,0.00,,2013-07-28 15:13:00,
2013-07-28 09:22:00,66.0,54.0,-100.00,SE,128,3.0,7.0,65,0.00,,,0.00,,2013-07-28 15:22:00,
2013-07-28 09:32:00,66.0,54.0,-100.00,SE,128,3.0,7.0,65,0.00,,,0.00,,2013-07-28 15:32:00,
2013-07-28 09:40:00,70.0,55.0,-100.00,SSE,164,3.0,8.0,59,0.00,,,0.00,,2013-07-28 15:40:00,
2013-07-28 10:12:00,70.0,55.0,-100.00,SSE,164,3.0,8.0,59,0.00,,,0.00,,2013-07-28 16:12:00,
2013-07-28 10:22:00,70.0,55.0,-100.00,SSE,164,3.0,8.0,59,0.00,,,0.00,,2013-07-28 16:22:00,
2013-07-28 10:33:00,70.0,55.0,-100.00,SSE,164,3.0,8.0,59,0.00,,,0.00,,2013-07-28 16:33:00,
2013-07-28 10:40:00,74.0,56.0,-100.00,SE,137,4.0,9.0,53,0.00,,,0.00,,2013-07-28 16:40:00,
2013-07-28 11:12:00,74.0,56.0,-100.00,SE,137,4.0,9.0,53,0.00,,,0.00,,2013-07-28 17:12:00,
2013-07-28 11:22:00,74.0,56.0,-100.00,SE,137,4.0,9.0,53,0.00,,,0.00,,2013-07-28 17:22:00,
2013-07-28 11:32:00,74.0,56.0,-100.00,SE,137,4.0,9.0,53,0.00,,,0.00,,2013-07-28 17:32:00,
2013-07-28 11:40:00,73.0,54.0,-100.00,East,101,3.0,8.0,52,0.00,,,0.00,,2013-07-28 17:40:00,
2013-07-28 12:12:00,73.0,54.0,-100.00,East,101,3.0,8.0,52,0.00,,,0.00,,2013-07-28 18:12:00,
2013-07-28 12:22:00,73.0,54.0,-100.00,East,101,3.0,8.0,52,0.00,,,0.00,,2013-07-28 18:22:00,
2013-07-28 12:33:00,73.0,54.0,-100.00,East,101,3.0,8.0,52,0.00,,,0.00,,2013-07-28 18:33:00,
2013-07-28 13:40:00,73.0,59.0,-100.00,SE,128,5.0,10.0,61,-99.99,,,0.01,,2013-07-28 19:40:00,
2013-07-28 14:12:00,73.0,59.0,-100.00,SE,128,5.0,10.0,61,-99.99,,,0.01,,2013-07-28 20:12:00,
2013-07-28 14:23:00,73.0,59.0,-100.00,SE,128,5.0,10.0,61,-99.99,,,0.01,,2013-07-28 20:23:00,
2013-07-28 14:33:00,73.0,59.0,-100.00,SE,128,5.0,10.0,61,-99.99,,,0.01,,2013-07-28 20:33:00,
2013-07-28 14:40:00,69.0,54.0,-100.00,NE,53,3.0,10.0,58,-99.99,,,0.02,,2013-07-28 20:40:00,
2013-07-28 15:12:00,69.0,54.0,-100.00,NE,53,3.0,10.0,58,-99.99,,,0.02,,2013-07-28 21:12:00,
2013-07-28 15:33:00,69.0,54.0,-100.00,NE,53,3.0,10.0,58,-99.99,,,0.02,,2013-07-28 21:33:00,
2013-07-28 15:40:00,64.0,60.0,-100.00,SSE,160,1.0,7.0,86,-99.99,,,0.07,,2013-07-28 21:40:00,
2013-07-28 16:12:00,64.0,60.0,-100.00,SSE,160,1.0,7.0,86,-99.99,,,0.07,,2013-07-28 22:12:00,
2013-07-28 16:22:00,64.0,60.0,-100.00,SSE,160,1.0,7.0,86,-99.99,,,0.07,,2013-07-28 22:22:00,
2013-07-28 16:32:00,64.0,60.0,-100.00,SSE,160,1.0,7.0,86,-99.99,,,0.07,,2013-07-28 22:32:00,
2013-07-28 16:40:00,71.0,59.0,-100.00,SE,137,3.0,6.0,65,0.00,,,0.07,,2013-07-28 22:40:00,
2013-07-28 17:12:00,71.0,59.0,-100.00,SE,137,3.0,6.0,65,0.00,,,0.07,,2013-07-28 23:12:00,
2013-07-28 17:22:00,71.0,59.0,-100.00,SE,137,3.0,6.0,65,0.00,,,0.07,,2013-07-28 23:22:00,
2013-07-28 17:32:00,71.0,59.0,-100.00,SE,137,3.0,6.0,65,0.00,,,0.07,,2013-07-28 23:32:00,
2013-07-28 17:40:00,68.0,59.0,-100.00,SSW,196,1.0,6.0,74,0.01,,,0.08,,2013-07-28 23:40:00,
2013-07-28 18:03:00,68.0,59.0,-100.00,SSW,196,1.0,6.0,74,0.01,,,0.08,,2013-07-29 00:03:00,
2013-07-28 18:12:00,68.0,59.0,-100.00,SSW,196,1.0,6.0,74,0.01,,,0.08,,2013-07-29 00:12:00,
2013-07-28 18:22:00,68.0,59.0,-100.00,SSW,196,1.0,6.0,74,0.01,,,0.08,,2013-07-29 00:22:00,
2013-07-28 18:32:00,68.0,59.0,-100.00,SSW,196,1.0,6.0,74,0.01,,,0.08,,2013-07-29 00:32:00,
2013-07-28 18:40:00,64.0,58.0,-100.00,NNW,348,4.0,13.0,80,0.00,,,-99.99,,2013-07-29 00:40:00,
2013-07-28 19:27:00,64.0,58.0,-100.00,NNW,348,4.0,13.0,80,0.00,,,-99.99,,2013-07-29 01:27:00,
2013-07-28 19:40:00,67.0,56.0,-100.00,SSE,151,1.0,5.0,68,0.00,,,0.08,,2013-07-29 01:40:00,
2013-07-28 20:14:00,67.0,56.0,-100.00,SSE,151,1.0,5.0,68,0.00,,,0.08,,2013-07-29 02:14:00,
2013-07-28 20:36:00,67.0,56.0,-100.00,SSE,151,1.0,5.0,68,0.00,,,0.08,,2013-07-29 02:36:00,
2013-07-28 20:40:00,61.0,56.0,-100.00,WNW,300,3.0,4.0,83,0.00,,,0.08,,2013-07-29 02:40:00,
2013-07-28 21:03:00,61.0,56.0,-100.00,WNW,300,3.0,4.0,83,0.00,,,0.08,,2013-07-29 03:03:00,
2013-07-28 21:16:00,61.0,56.0,-100.00,WNW,300,3.0,4.0,83,0.00,,,0.08,,2013-07-29 03:16:00,
2013-07-28 21:24:00,61.0,56.0,-100.00,WNW,300,3.0,4.0,83,0.00,,,0.08,,2013-07-29 03:24:00,
2013-07-28 21:36:00,61.0,56.0,-100.00,WNW,300,3.0,4.0,83,0.00,,,0.08,,2013-07-29 03:36:00,
2013-07-28 21:40:00,60.0,55.0,-100.00,NW,309,3.0,5.0,84,0.00,,,0.08,,2013-07-29 03:40:00,
2013-07-28 22:12:00,60.0,55.0,-100.00,NW,309,3.0,5.0,84,0.00,,,0.08,,2013-07-29 04:12:00,
2013-07-28 22:22:00,60.0,55.0,-100.00,NW,309,3.0,5.0,84,0.00,,,0.08,,2013-07-29 04:22:00,
2013-07-28 22:32:00,60.0,55.0,-100.00,NW,309,3.0,5.0,84,0.00,,,0.08,,2013-07-29 04:32:00,
2013-07-28 22:40:00,62.0,55.0,-100.00,North,3,2.0,4.0,78,0.00,,,0.08,,2013-07-29 04:40:00,
2013-07-28 23:02:00,62.0,55.0,-100.00,North,3,2.0,4.0,78,0.00,,,0.08,,2013-07-29 05:02:00,
2013-07-28 23:12:00,62.0,55.0,-100.00,North,3,2.0,4.0,78,0.00,,,0.08,,2013-07-29 05:12:00,
2013-07-28 23:22:00,62.0,55.0,-100.00,North,3,2.0,4.0,78,0.00,,,0.08,,2013-07-29 05:22:00,
2013-07-28 23:32:00,62.0,55.0,-100.00,North,3,2.0,4.0,78,0.00,,,0.08,,2013-07-29 05:32:00,
2013-07-28 23:40:00,62.0,55.0,-100.00,SE,144,2.0,11.0,79,0.00,,,0.08,,2013-07-29 05:40:00,